Flag for Germany Weather past 2 weeks in Altenburg, Thuringia, Germany

Now
63 °F

Sunny.


Feels Like: 63 °F
Forecast: 53 / 67 °F
Wind: 2 mph from South

Location: Altenburg Nobitz

Current Time: Sep 30, 2014 at 10:45:44 PM

Latest Report: Sep 30, 2014 at 7:20 PM


Visibility: 10 mi

Pressure: 30.27 "Hg

Humidity: 94%

Dew point: 61 °F

Location of AltenburgLocation

Historic Weather in Altenburg — Graph

°F

Altenburg temperature yesterday

Maximum temperature yesterday: 77 °F (at 2:20 PM)
Minimum temperature yesterday: 59 °F (at 8:50 AM)
Average temperature yesterday: 70 °F

Past Weeks' High & Low Weather Summary

 TemperatureHumidityPressure
High77 °F (Sep 29, 2:20 PM)100% (Sep 16, 8:20 AM)30.39 "Hg (Sep 16, 8:20 AM)
Low48 °F (Sep 22, 1:50 PM)47% (Sep 29, 3:20 PM)29.86 "Hg (Sep 24, 4:50 PM)
Average63 °F74%30.07 "Hg
* Reported Sep 15 7:20 PM — Sep 30 7:20 PM, Altenburg, Weather by CustomWeather, © 2014

Note: Actual official high and low records may vary slightly from our data, if they occured in-between our weather recording intervals... More about our weather records

Advertising

Altenburg weather history for previous 24 hours

 ConditionsComfort  
Time TempWeatherWind HumidityBarometerVisibility
7:20 PM
Sep 30
63 °FSunny.2 mph94%30.27 "Hg10 mi
6:50 PM64 °FScattered clouds.2 mph88%30.27 "HgN/A
6:20 PM66 °FScattered clouds.1 mph83%30.27 "HgN/A
5:50 PM68 °FScattered clouds.1 mph73%30.24 "HgN/A
5:20 PM68 °FScattered clouds.5 mph73%30.24 "HgN/A
4:50 PM68 °FScattered clouds.5 mph69%30.27 "HgN/A
4:20 PM70 °FScattered clouds.5 mph64%30.27 "HgN/A
3:20 PM70 °FScattered clouds.7 mph64%30.27 "HgN/A
2:50 PM70 °FScattered clouds.8 mph60%30.27 "HgN/A
2:20 PM68 °FScattered clouds.8 mph64%30.27 "HgN/A
1:50 PM70 °FScattered clouds.10 mph69%30.27 "HgN/A
1:20 PM68 °FScattered clouds.8 mph73%30.27 "HgN/A
12:50 PM66 °FScattered clouds.5 mph73%30.27 "HgN/A
12:20 PM66 °FScattered clouds.5 mph73%30.27 "HgN/A
11:50 AM64 °FScattered clouds.5 mph83%30.27 "HgN/A
11:20 AM64 °FPartly sunny.3 mph78%30.27 "HgN/A
10:50 AM63 °FDrizzle. Partly sunny.2 mph88%30.27 "HgN/A
10:20 AM63 °FDrizzle. Partly sunny.5 mph83%30.27 "HgN/A
9:50 AM63 °FPartly sunny.3 mph83%30.24 "HgN/A
9:20 AM63 °FPartly sunny.2 mph83%30.24 "HgN/A
8:50 AM61 °FPartly sunny.1 mph88%30.24 "HgN/A
8:20 AM59 °FPartly sunny.1 mph94%30.24 "HgN/A
Weather by CustomWeather, © 2014

See weather overviewHow to use our weather pages